{"data":{"norad_id":68236,"intl_designator":"2026-054E","name":"STARLINK-37127","alt_names":[],"object_type":"PAYLOAD","status":"ACTIVE","operator":null,"country":"US","launch_date":"2026-03-17","launch_site_code":"AFETR","launch_vehicle":null,"mission":null,"orbit_class":"UNKNOWN","rcs_meters":null,"size_class":null,"mass_kg":null,"dimensions":null,"purposes":["comms"],"wikipedia_slug":null,"has_3d_model":false,"image_url":null,"decayed_at":null,"tle_current":{"epoch":"2026-09-20T01:51:14.780160Z","epoch_age_seconds":87934,"freshness":"FRESH","line1":"1 68236U 26054E   26263.07725440  .00011537  00000+0  35199-3 0  9996","line2":"2 68236  53.1579 104.0194 0001332  90.1610 269.9545 15.34407465 28898","mean_motion":15.34407465,"eccentricity":0.0001332,"inclination_deg":53.1579,"raan_deg":104.0194,"arg_perigee_deg":90.161,"mean_anomaly_deg":269.9545,"bstar":0.00035199,"rev_number":2889,"period_min":93.847301505406,"perigee_km":461.76985577926,"apogee_km":463.59224970851,"semimajor_km":6840.8180527439,"source":"CELESTRAK","updated_at":"2026-09-20T09:00:43.839829Z"}}}